DW7589 Weather Reports


time (UTC)temp
C
wind
direction
speed
KPH
gust
KPH
rain 1hr
cm
rain 24hr
cm
rain mn
cm
humidity
%
barometer
mb
20200218214002 11 355 9.7 19.3 0.00 0.00 0.00 74 1019.7
20200218213502 10 350 8.0 19.3 0.00 0.00 0.00 75 1020.0
20200218213002 10 351 8.0 19.3 0.00 0.00 0.00 75 1020.0
20200218212502 10 348 8.0 20.9 0.00 0.00 0.00 76 1020.0
20200218212003 10 344 9.7 20.9 0.00 0.00 0.00 76 1020.2
20200218211502 10 348 9.7 20.9 0.00 0.00 0.00 76 1020.0
20200218210502 10 347 8.0 19.3 0.00 0.00 0.00 77 1019.7
20200218210002 10 349 8.0 20.9 0.00 0.00 0.00 78 1019.7
20200218205503 10 349 9.7 20.9 0.00 0.00 0.00 78 1019.6
20200218205002 10 347 9.7 24.1 0.00 0.00 0.00 78 1019.7
20200218204503 10 338 9.7 24.1 0.00 0.00 0.00 78 1019.8
20200218204002 10 337 12.9 27.4 0.00 0.00 0.00 77 1019.9
20200218203502 10 342 11.3 27.4 0.00 0.00 0.00 76 1019.7
20200218202503 10 344 12.9 25.7 0.00 0.00 0.00 74 1019.1
20200218200003 11 341 8.0 29.0 0.00 0.00 0.00 73 1019.3
20200218195502 11 343 11.3 27.4 0.00 0.00 0.00 73 1019.2
20200218195001 11 346 11.3 27.4 0.00 0.00 0.00 71 1019.2
20200218194003 11 343 12.9 30.6 0.00 0.00 0.00 73 1019.2
20200218193502 11 342 12.9 30.6 0.00 0.00 0.00 72 1018.9
20200218193002 11 342 12.9 29.0 0.00 0.00 0.00 72 1019.1
20200218192002 11 339 12.9 29.0 0.00 0.00 0.00 72 1019.0
20200218185502 11 346 12.9 29.0 0.00 0.00 0.00 77 1018.7
20200218184002 11 346 11.3 22.5 0.00 0.00 0.00 80 1018.9
20200218183502 11 345 9.7 22.5 0.00 0.00 0.00 81 1018.8
20200218183002 11 343 9.7 24.1 0.00 0.00 0.00 83 1019.3
20200218182002 11 343 9.7 19.3 0.00 0.00 0.00 88 1019.2
20200218181502 11 343 11.3 25.7 0.00 0.00 0.00 90 1019.3
20200218180503 11 342 9.7 25.7 0.00 0.00 0.00 92 1019.4
20200218175503 11 351 9.7 24.1 0.00 0.00 0.00 93 1018.9
20200218175002 11 349 9.7 24.1 0.00 0.00 0.00 93 1018.7
20200218174502 11 346 9.7 22.5 0.00 0.00 0.00 93 1018.4
20200218173002 12 341 8.0 25.7 0.00 0.00 0.00 93 1019.0
20200218172502 12 343 11.3 25.7 0.00 0.00 0.00 92 1019.0
20200218172002 13 340 11.3 25.7 0.00 0.00 0.00 92 1018.8
20200218171002 14 342 9.7 20.9 0.00 0.00 0.00 93 1018.4
20200218165501 14 340 8.0 17.7 0.00 0.00 0.00 92 1018.2
20200218165002 14 343 8.0 17.7 0.00 0.00 0.00 92 1018.3
20200218164003 14 346 8.0 16.1 0.00 0.00 0.00 91 1018.2
20200218163502 14 338 8.0 20.9 0.00 0.00 0.00 91 1018.1
20200218163002 14 334 9.7 20.9 0.00 0.00 0.00 90 1018.5
20200218162502 15 335 9.7 19.3 0.00 0.00 0.00 90 1018.5
20200218161503 15 329 8.0 16.1 0.00 0.00 0.00 89 1018.3
20200218161003 15 333 8.0 19.3 0.00 0.00 0.00 88 1018.0
20200218160502 15 337 8.0 20.9 0.00 0.00 0.00 88 1017.8
20200218155502 15 338 6.4 16.1 0.00 0.00 0.00 87 1017.3
20200218155002 15 335 8.0 17.7 0.00 0.00 0.00 86 1017.3
20200218153502 15 336 6.4 19.3 0.00 0.00 0.00 85 1017.1
20200218152503 15 335 6.4 17.7 0.00 0.00 0.00 85 1016.7
20200218152002 15 333 9.7 20.9 0.00 0.00 0.00 84 1016.7
20200218151503 15 337 9.7 20.9 0.00 0.00 0.00 84 1016.5
20200218150502 15 336 9.7 19.3 0.00 0.00 0.00 83 1016.4
20200218145502 15 336 8.0 17.7 0.00 0.00 0.00 82 1016.2
20200218145002 15 334 6.4 17.7 0.00 0.00 0.00 82 1016.1
20200218144502 15 338 6.4 14.5 0.00 0.00 0.00 83 1015.7
20200218143503 15 341 4.8 16.1 0.00 0.00 0.00 83 1015.7
20200218143002 15 343 3.2 9.7 0.00 0.00 0.00 83 1015.9
20200218141502 15 346 3.2 8.0 0.00 0.00 0.00 83 1015.5
20200218141002 15 338 3.2 8.0 0.00 0.00 0.00 84 1015.5
20200218140002 15 327 3.2 9.7 0.00 0.00 0.00 84 1015.2
20200218135502 15 331 4.8 14.5 0.00 0.00 0.00 84 1015.2
20200218135002 15 331 4.8 14.5 0.00 0.00 0.00 84 1015.0
20200218133502 15 337 3.2 8.0 0.00 0.00 0.00 87 1014.6
20200218132003 16 339 1.6 6.4 0.00 0.00 0.00 90 1014.1
20200218131502 16 17 1.6 6.4 0.00 0.00 0.00 90 1014.1
20200218131002 17 0 0.0 4.8 0.00 0.00 0.00 92 1013.9
20200218130502 18 0 0.0 3.2 0.00 0.00 0.00 94 1013.9
20200218130002 18 0 0.0 1.6 0.00 0.00 0.00 94 1013.6
20200218125502 18 0 0.0 3.2 0.00 0.00 0.00 94 1013.4
20200218124503 18 0 0.0 1.6 0.00 0.00 0.00 93 1013.3
20200218123002 18 0 0.0 3.2 0.00 0.00 0.00 93 1013.3
20200218122502 18 155 1.6 4.8 0.00 0.00 0.00 93 1013.2
20200218121502 18 154 1.6 4.8 0.00 0.00 0.00 93 1013.4
20200218121002 18 154 3.2 8.0 0.00 0.00 0.00 93 1013.2
20200218120502 18 156 3.2 8.0 0.00 0.00 0.00 93 1013.0
20200218120002 18 161 1.6 6.4 0.00 0.00 0.00 93 1013.2
20200218115002 18 161 1.6 3.2 0.00 0.00 0.00 93 1013.2
20200218114502 18 161 3.2 6.4 0.00 0.00 0.00 93 1013.1
20200218113503 18 193 3.2 8.0 0.00 0.00 0.00 93 1012.5
20200218113003 19 198 3.2 4.8 0.00 0.00 0.00 93 1012.7
20200218112502 19 198 1.6 4.8 0.00 0.00 0.00 93 1012.6
20200218112002 19 0 0.0 3.2 0.00 0.00 0.00 92 1012.6
20200218110503 19 0 0.0 1.6 0.00 0.00 0.00 92 1012.6
20200218110002 19 0 0.0 0.0 0.00 0.00 0.00 92 1012.4
20200218102002 19 198 1.6 4.8 0.00 0.00 0.00 92 1012.5
20200218101502 19 198 1.6 3.2 0.00 0.00 0.00 92 1012.3
20200218100002 19 198 1.6 4.8 0.00 0.00 0.00 91 1011.7
20200218095502 19 0 0.0 3.2 0.00 0.00 0.00 91 1011.7
20200218095002 19 0 0.0 3.2 0.00 0.00 0.00 91 1011.7
20200218094502 19 0 0.0 4.8 0.00 0.00 0.00 91 1011.6
20200218093001 20 191 4.8 8.0 0.00 0.00 0.00 91 1011.7
20200218092502 20 191 4.8 9.7 0.00 0.00 0.00 91 1011.6
20200218091002 20 192 6.4 9.7 0.00 0.00 0.00 91 1011.6
20200218090002 20 193 6.4 9.7 0.00 0.00 0.00 91 1011.5
20200218084502 20 188 6.4 9.7 0.00 0.00 0.00 91 1011.7
20200218083002 20 182 8.0 14.5 0.00 0.00 0.00 90 1011.4
20200218082002 20 177 8.0 12.9 0.00 0.00 0.00 90 1011.4
20200218081502 20 171 9.7 16.1 0.00 0.00 0.00 91 1011.3
20200218080002 20 186 8.0 14.5 0.00 0.00 0.00 91 1011.3
20200218075003 20 172 6.4 9.7 0.00 0.00 0.00 91 1011.2
20200218074004 20 177 4.8 11.3 0.00 0.00 0.00 91 1011.3
20200218072002 19 175 3.2 6.4 0.00 0.00 0.00 91 1010.9
20200218071502 19 176 4.8 6.4 0.00 0.00 0.00 91 1011.0
20200218071002 19 176 6.4 11.3 0.00 0.00 0.00 91 1011.1
20200218070003 20 173 8.0 11.3 0.00 0.00 0.00 90 1010.9
20200218065003 20 171 8.0 12.9 0.00 0.00 0.00 90 1010.9
20200218064502 20 173 9.7 12.9 0.00 0.00 0.00 90 1010.9
20200218064006 20 173 9.7 14.5 0.00 0.00 0.00 90 1011.0
20200218063502 20 173 9.7 14.5 0.00 0.00 0.00 90 1010.9
20200218062002 20 172 8.0 14.5 0.00 0.00 0.00 89 1010.9
20200218060003 20 172 8.0 12.9 0.00 0.00 0.00 89 1010.6
20200218055502 20 174 8.0 12.9 0.00 0.00 0.00 89 1010.7
20200218054002 20 176 8.0 12.9 0.00 0.00 0.00 89 1010.7
20200218052502 20 173 9.7 14.5 0.00 0.00 0.00 88 1010.6
20200218052003 20 173 9.7 12.9 0.00 0.00 0.00 88 1010.5
20200218051502 20 173 8.0 12.9 0.00 0.00 0.00 88 1010.4
20200218050502 20 175 8.0 11.3 0.00 0.00 0.00 88 1010.4
20200218045502 20 175 8.0 16.1 0.00 0.00 0.00 87 1010.3
20200218044502 20 171 8.0 11.3 0.00 0.00 0.00 87 1010.3
20200218044002 20 172 8.0 11.3 0.00 0.00 0.00 87 1010.4
20200218042502 20 173 8.0 16.1 0.00 0.00 0.00 87 1010.2
20200218041503 20 172 8.0 11.3 0.00 0.00 0.00 87 1010.2
20200218040004 20 172 9.7 12.9 0.00 0.00 0.00 87 1010.2
20200218035502 20 171 6.4 11.3 0.00 0.00 0.00 87 1010.3
20200218035003 20 171 4.8 9.7 0.00 0.00 0.00 86 1010.1
20200218034502 20 172 3.2 8.0 0.00 0.00 0.00 86 1010.1
20200218033502 20 171 3.2 9.7 0.00 0.00 0.00 86 1010.0
20200218032002 20 171 6.4 9.7 0.00 0.00 0.00 86 1009.8
20200218030002 21 171 6.4 11.3 0.00 0.00 0.00 85 1009.7
20200218025502 21 171 8.0 11.3 0.00 0.00 0.00 84 1009.8
20200218024502 21 171 8.0 9.7 0.00 0.00 0.00 84 1009.7
20200218023002 21 172 6.4 11.3 0.00 0.00 0.00 83 1009.6
20200218022502 21 172 6.4 11.3 0.00 0.00 0.00 83 1009.6
20200218022003 21 172 8.0 9.7 0.00 0.00 0.00 82 1009.6
20200218020002 21 174 9.7 12.9 0.00 0.00 0.00 81 1009.4
20200218014503 22 177 9.7 14.5 0.00 0.00 0.00 80 1009.1
20200218014002 22 176 9.7 14.5 0.00 0.00 0.00 80 1009.0
20200218013503 22 172 8.0 12.9 0.00 0.00 0.00 80 1009.0
20200218012502 22 171 9.7 12.9 0.00 0.00 0.00 79 1008.9
20200218012003 22 172 8.0 12.9 0.00 0.00 0.00 78 1009.0
20200218011502 22 175 8.0 12.9 0.00 0.00 0.00 78 1009.0
20200218011002 22 174 8.0 12.9 0.00 0.00 0.00 78 1008.9
20200218010502 22 169 8.0 12.9 0.00 0.00 0.00 77 1008.8
20200218010003 22 163 8.0 12.9 0.00 0.00 0.00 77 1008.8
20200218004502 22 161 6.4 9.7 0.00 0.00 0.00 75 1008.4
20200218002002 23 175 4.8 11.3 0.00 0.00 0.00 68 1008.1
20200218001502 23 176 6.4 11.3 0.00 0.00 0.00 67 1008.1
20200218001003 23 177 8.0 14.5 0.00 0.00 0.00 67 1008.1
20200217235502 24 174 8.0 14.5 0.00 0.00 0.00 66 1007.9
20200217235002 24 173 11.3 17.7 0.00 0.00 0.00 66 1007.9
20200217233502 25 172 12.9 22.5 0.00 0.00 0.00 63 1007.8
20200217233003 25 171 11.3 19.3 0.00 0.00 0.00 63 1007.7
20200217232502 25 172 11.3 17.7 0.00 0.00 0.00 64 1007.6
20200217232003 25 173 12.9 19.3 0.00 0.00 0.00 64 1007.5
20200217231503 25 173 12.9 19.3 0.00 0.00 0.00 64 1007.3
20200217230502 25 171 11.3 19.3 0.00 0.00 0.00 65 1007.3
20200217230002 25 170 11.3 19.3 0.00 0.00 0.00 65 1007.3
20200217225503 25 172 11.3 16.1 0.00 0.00 0.00 65 1007.3
20200217225002 25 172 9.7 16.1 0.00 0.00 0.00 65 1007.5
20200217224503 25 173 11.3 16.1 0.00 0.00 0.00 66 1007.5
20200217224002 25 173 11.3 19.3 0.00 0.00 0.00 65 1007.5
20200217222002 25 173 12.9 19.3 0.00 0.00 0.00 65 1007.4
20200217221002 25 173 12.9 17.7 0.00 0.00 0.00 65 1007.4
20200217220503 25 172 12.9 17.7 0.00 0.00 0.00 64 1007.3